{"data":{"norad_id":48370,"intl_designator":"2021-038T","name":"STARLINK-2621","alt_names":[],"object_type":"PAYLOAD","status":"ACTIVE","operator":null,"country":"US","launch_date":"2021-05-04","launch_site_code":"AFETR","launch_vehicle":null,"mission":null,"orbit_class":"UNKNOWN","rcs_meters":null,"size_class":null,"mass_kg":null,"dimensions":null,"purposes":["comms"],"wikipedia_slug":null,"has_3d_model":false,"image_url":null,"decayed_at":null,"tle_current":{"epoch":"2026-05-25T00:21:08.885088Z","epoch_age_seconds":73881,"freshness":"FRESH","line1":"1 48370U 21038T   26145.01468617  .00000746  00000+0  35800-4 0  9993","line2":"2 48370  53.1616 352.7661 0001144  90.8420 269.2713 15.31698391278912","mean_motion":15.31698391,"eccentricity":0.0001144,"inclination_deg":53.1616,"raan_deg":352.7661,"arg_perigee_deg":90.842,"mean_anomaly_deg":269.2713,"bstar":3.58e-5,"rev_number":27891,"period_min":94.013286718926,"perigee_km":469.96127949816,"apogee_km":471.52830365208,"semimajor_km":6848.8817915751,"source":"CELESTRAK","updated_at":"2026-05-25T13:38:16.687446Z"}}}